[[{"header":{"parameterUnit":"m.s-1","parameterCategory":1,"la1":30.2991,"la2":30.254,"lo1":-89.0895,"lo2":-89.0444,"dy":0.0017,"dx":0.0017,"nx":28,"ny":28,"refTime":"2023-08-29T03:00:00:Z","depth":0,"parameterNumber":2,"parameterNumberName":"U-component_of_WINDS"},"data":[0,0,0,0,0,0,0,0,0,0,0,0,0,0,0,0,0,0,0,0,0,0,0,0,0,0,0,0,0,0,0,0,0,0,0,0,0,0,0,0,0,0,0,0,0,0,0,0,0,0,0,0,0,0,0,0,0,0,-0.223,-0.223,0,-0.2175,-0.2175,-0.2174,-0.2154,-0.2155,-0.2155,-0.2155,-0.2098,-0.2096,-0.2094,0,0,0,0,0,0,0,0,0,0,0,0,0,-0.2316,-0.2315,-0.223,-0.2229,-0.2229,-0.2175,-0.2175,-0.2174,-0.2154,-0.2155,-0.2155,-0.2155,-0.2098,-0.2096,-0.2094,0,0,0,0,0,0,0,0,0,0,0,0,0,-0.2272,-0.2314,-0.223,-0.2213,-0.2211,-0.2175,-0.2174,-0.2174,-0.2154,-0.2155,-0.2155,-0.2155,-0.2099,-0.2097,-0.2094,-0.2072,0,0,-0.2086,-0.2085,0,0,0,0,0,0,0,0,-0.2275,-0.2269,-0.2216,-0.2214,-0.2211,-0.2172,-0.2184,-0.214,-0.2154,-0.2176,-0.2155,-0.2155,-0.2122,-0.2118,-0.2107,-0.2069,-0.2067,-0.2086,-0.2084,-0.2083,-0.2083,0,0,0,0,0,0,0,-0.2278,-0.2271,-0.2208,-0.2215,-0.2212,-0.2207,-0.2201,-0.2175,-0.2148,-0.2174,-0.2172,-0.2166,-0.2121,-0.2109,-0.2105,-0.2066,-0.2086,-0.2084,-0.2082,-0.2081,-0.2007,-0.2006,0,0,0,0,0,0,-0.2284,-0.2274,-0.221,-0.2207,-0.2244,-0.2205,-0.2198,-0.2184,-0.2148,-0.2143,-0.2166,-0.2165,-0.2113,-0.2108,-0.2103,-0.2074,-0.2083,-0.2081,-0.2079,-0.2007,-0.2007,-0.2006,0,0,0,0,0,0,-0.2286,-0.2278,-0.2212,-0.224,-0.2231,-0.2203,-0.2188,-0.2183,-0.2171,-0.2142,-0.2137,-0.2159,-0.2113,-0.2107,-0.208,-0.2072,-0.208,-0.2077,-0.2008,-0.2007,-0.2006,-0.2017,0,0,0,0,0,0,-0.2288,-0.2279,-0.2271,-0.224,-0.223,-0.219,-0.2187,-0.2182,-0.2167,-0.2166,-0.2134,-0.2129,-0.2113,-0.2084,-0.2077,-0.2069,-0.2075,-0.2008,-0.2007,-0.2007,-0.2017,-0.2017,-0.2017,0,0,0,0,0,-0.2292,-0.2276,-0.2271,-0.2263,-0.2219,-0.219,-0.2184,-0.2166,-0.2167,-0.2158,-0.2139,-0.213,-0.2074,-0.2081,-0.2074,-0.2064,-0.2009,-0.2008,-0.2007,-0.2018,-0.2017,-0.2017,0,0,0,0,0,0,-0.2308,-0.2272,-0.2265,-0.224,-0.2218,-0.2187,-0.2175,-0.2166,-0.2144,-0.2144,-0.2122,-0.2115,-0.2089,-0.2074,-0.2083,-0.204,-0.2041,-0.2038,-0.2052,-0.2051,-0.205,-0.2055,-0.2073,0,0,0,0,0,-0.2308,-0.2288,-0.2258,-0.2238,-0.2228,-0.2204,-0.219,-0.2178,-0.2155,-0.2145,-0.2124,-0.2101,-0.2078,-0.2064,-0.2041,-0.2015,-0.2007,-0.2005,-0.2004,-0.2004,-0.2002,-0.1986,-0.1984,-0.2003,-0.2003,-0.2003,0,0,-0.2309,-0.2287,-0.2276,-0.2241,-0.2223,-0.2202,-0.2196,-0.2174,-0.2158,-0.2142,-0.2115,-0.2099,-0.2072,-0.2045,-0.2032,-0.2031,-0.1995,-0.2003,-0.2003,-0.2001,-0.1985,-0.1983,-0.1982,-0.2002,-0.2002,-0.2002,0,0,-0.2301,-0.2282,-0.2263,-0.2245,-0.2217,-0.2201,-0.2197,-0.2166,-0.2155,-0.2127,-0.2114,-0.2095,-0.2056,-0.2037,-0.2022,-0.2004,-0.1995,-0.1997,-0.1996,-0.198,-0.1979,-0.1977,-0.197,-0.1968,-0.1996,-0.1996,-0.1996,0,-0.2305,-0.2274,-0.2255,-0.2234,-0.2218,-0.2202,-0.2182,-0.2165,-0.2131,-0.2121,-0.2121,-0.207,-0.2051,-0.2019,-0.2015,-0.2003,-0.1997,-0.2001,-0.198,-0.1979,-0.1977,-0.197,-0.1968,-0.1996,-0.1996,-0.1996,-0.1996,0,-0.2281,-0.2259,-0.2247,-0.2214,-0.2198,-0.2177,-0.2154,-0.2139,-0.2128,-0.2112,-0.2083,-0.206,-0.2031,-0.2023,-0.2012,-0.1988,-0.1989,-0.1985,-0.1985,-0.1976,-0.1969,-0.1966,-0.1997,-0.1996,-0.1996,-0.1996,0,0,-0.2281,-0.2238,-0.2234,-0.2219,-0.2186,-0.2169,-0.2147,-0.2119,-0.2106,-0.2083,-0.2064,-0.2031,-0.2026,-0.201,-0.1996,-0.1983,-0.1969,-0.198,-0.1979,-0.1978,-0.1941,-0.1944,-0.1941,-0.1963,-0.1962,-0.1962,-0.1943,0,-0.2268,-0.2229,-0.2211,-0.218,-0.2159,-0.2142,-0.2123,-0.2101,-0.2085,-0.2064,-0.2045,-0.2022,-0.2018,-0.2008,-0.1994,-0.1974,-0.1961,-0.1975,-0.1944,-0.1943,-0.1951,-0.1938,-0.1941,-0.1925,-0.194,-0.194,-0.1939,0,-0.2248,-0.2224,-0.2191,-0.216,-0.2151,-0.2134,-0.2106,-0.2087,-0.2061,-0.205,-0.203,-0.2017,-0.1993,-0.1994,-0.196,-0.1969,-0.1955,-0.1943,-0.1942,-0.1939,-0.1941,-0.1933,-0.1919,-0.1916,-0.1935,-0.1935,-0.1936,0,-0.2251,-0.2211,-0.2186,-0.2173,-0.2137,-0.2125,-0.2109,-0.2083,-0.2067,-0.2043,-0.2032,-0.2005,-0.1991,-0.197,-0.1949,-0.1952,-0.1916,-0.1916,-0.1906,-0.1906,-0.1899,-0.19,-0.1882,-0.1891,-0.1891,-0.1891,-0.1891,0,-0.2238,-0.2218,-0.2187,-0.2171,-0.2148,-0.2126,-0.2104,-0.2087,-0.2064,-0.2044,-0.2028,-0.2009,-0.1984,-0.1962,-0.1945,-0.1919,-0.1912,-0.1902,-0.1898,-0.1903,-0.1905,-0.1894,-0.1894,-0.189,-0.189,-0.189,-0.189,0,-0.2237,-0.2216,-0.2187,-0.2154,-0.2146,-0.213,-0.2102,-0.2086,-0.2068,-0.2043,-0.2036,-0.2008,-0.1981,-0.1959,-0.1924,-0.1912,-0.1885,-0.188,-0.1894,-0.1891,-0.1882,-0.1883,-0.1856,-0.1851,-0.1864,-0.1864,-0.1864,0,-0.2231,-0.2215,-0.218,-0.2166,-0.215,-0.2128,-0.2111,-0.2089,-0.2072,-0.204,-0.2028,-0.2,-0.1976,-0.1934,-0.191,-0.1883,-0.1877,-0.187,-0.1873,-0.1878,-0.1876,-0.1877,-0.1875,-0.1869,-0.1869,-0.1869,-0.1869,0,-0.222,-0.221,-0.2187,-0.216,-0.2141,-0.2118,-0.2096,-0.2084,-0.2058,-0.204,-0.2012,-0.1994,-0.1957,-0.193,-0.1899,-0.1882,-0.1871,-0.1868,-0.1864,-0.187,-0.1878,-0.1873,-0.1893,-0.1869,-0.1869,-0.1869,-0.1869,-0.1869,-0.2216,-0.2201,-0.2174,-0.2149,-0.2129,-0.2108,-0.2091,-0.2071,-0.2047,-0.2016,-0.2004,-0.1976,-0.1948,-0.1907,-0.1889,-0.1866,-0.1864,-0.1859,-0.1857,-0.1856,-0.1857,-0.1882,-0.186,-0.186,-0.186,-0.186,-0.186,0,-0.2205,-0.2186,-0.2163,-0.2131,-0.2111,-0.2102,-0.2076,-0.206,-0.2035,-0.201,-0.1987,-0.1955,-0.1927,-0.1901,-0.1872,-0.1858,-0.1852,-0.1851,-0.1852,-0.1848,-0.186,-0.1866,-0.1857,-0.1857,-0.1857,-0.1857,-0.1857,-0.1857,-0.2196,-0.217,-0.2156,-0.2119,-0.2101,-0.2073,-0.2059,-0.2038,-0.2019,-0.1983,-0.1961,-0.1944,-0.1918,-0.1887,-0.1861,-0.1853,-0.1843,-0.1844,-0.1835,-0.1847,-0.1847,-0.1848,-0.1854,-0.1842,-0.1842,-0.1825,-0.1825,-0.1825]},{"header":{"parameterUnit":"m.s-1","parameterCategory":1,"la1":30.2991,"la2":30.254,"lo1":-89.0895,"lo2":-89.0444,"dy":0.0017,"dx":0.0017,"nx":28,"ny":28,"refTime":"2023-08-29T03:00:00:Z","depth":0,"parameterNumber":3,"parameterNumberName":"V-component_of_WINDS"},"data":[0,0,0,0,0,0,0,0,0,0,0,0,0,0,0,0,0,0,0,0,0,0,0,0,0,0,0,0,0,0,0,0,0,0,0,0,0,0,0,0,0,0,0,0,0,0,0,0,0,0,0,0,0,0,0,0,0,0,-7.0595,-7.0595,0,-7.0661,-7.0661,-7.0662,-7.06,-7.0598,-7.0595,-7.0593,-7.0655,-7.0658,-7.0662,0,0,0,0,0,0,0,0,0,0,0,0,0,-7.0411,-7.0414,-7.0595,-7.0596,-7.0596,-7.0661,-7.0661,-7.0662,-7.0601,-7.0598,-7.0595,-7.0592,-7.0653,-7.0658,-7.0663,0,0,0,0,0,0,0,0,0,0,0,0,0,-7.0485,-7.0415,-7.0595,-7.0573,-7.0572,-7.066,-7.0661,-7.0663,-7.0601,-7.0597,-7.0594,-7.059,-7.0652,-7.0658,-7.0663,-7.0774,0,0,-7.0681,-7.0684,0,0,0,0,0,0,0,0,-7.0481,-7.0492,-7.0576,-7.0575,-7.0574,-7.0619,-7.0619,-7.07,-7.0602,-7.059,-7.0593,-7.0589,-7.0645,-7.0651,-7.0672,-7.0777,-7.0779,-7.0682,-7.0686,-7.0688,-7.069,0,0,0,0,0,0,0,-7.0476,-7.0488,-7.062,-7.0577,-7.0576,-7.0559,-7.0566,-7.0634,-7.0637,-7.0591,-7.0586,-7.0595,-7.0644,-7.0666,-7.0673,-7.078,-7.0682,-7.0687,-7.0691,-7.0693,-7.0981,-7.0985,0,0,0,0,0,0,-7.0473,-7.0485,-7.0618,-7.0622,-7.0517,-7.0565,-7.0573,-7.0608,-7.0637,-7.0637,-7.0599,-7.0592,-7.0658,-7.0666,-7.0675,-7.0807,-7.0688,-7.0694,-7.0697,-7.0977,-7.0982,-7.0986,0,0,0,0,0,0,-7.047,-7.0486,-7.0616,-7.0552,-7.0568,-7.0573,-7.0613,-7.0611,-7.0633,-7.0642,-7.0642,-7.0621,-7.0655,-7.0666,-7.075,-7.0808,-7.0696,-7.0702,-7.0972,-7.0978,-7.0984,-7.1072,0,0,0,0,0,0,-7.0465,-7.0485,-7.0528,-7.0554,-7.0571,-7.0692,-7.0616,-7.0615,-7.0644,-7.0637,-7.0663,-7.0664,-7.0653,-7.0742,-7.0756,-7.0814,-7.0706,-7.0967,-7.0975,-7.0982,-7.1064,-7.1081,-7.1095,0,0,0,0,0,-7.0458,-7.0549,-7.0531,-7.0547,-7.0626,-7.0696,-7.0705,-7.0693,-7.0649,-7.0692,-7.0698,-7.0663,-7.08,-7.0751,-7.0767,-7.0828,-7.0963,-7.0972,-7.0981,-7.1057,-7.1077,-7.1094,0,0,0,0,0,0,-7.0527,-7.0552,-7.0532,-7.0634,-7.0664,-7.0685,-7.0738,-7.0714,-7.0755,-7.0746,-7.0726,-7.0733,-7.0822,-7.0833,-7.0778,-7.0937,-7.0874,-7.0887,-7.0927,-7.0946,-7.0961,-7.0956,-7.0711,0,0,0,0,0,-7.0554,-7.0611,-7.0629,-7.0717,-7.0733,-7.0734,-7.0763,-7.0751,-7.078,-7.0792,-7.0804,-7.0832,-7.0881,-7.0914,-7.0959,-7.1065,-7.107,-7.1115,-7.113,-7.1143,-7.1154,-7.1212,-7.1232,-7.1016,-7.1016,-7.1016,0,0,-7.061,-7.0631,-7.0667,-7.0731,-7.0753,-7.0811,-7.0744,-7.0808,-7.085,-7.0801,-7.0882,-7.0892,-7.0922,-7.1018,-7.1061,-7.1029,-7.1215,-7.1154,-7.1164,-7.1169,-7.1223,-7.1244,-7.1262,-7.1022,-7.1021,-7.102,0,0,-7.0743,-7.0764,-7.0841,-7.0865,-7.0899,-7.0899,-7.0918,-7.0944,-7.095,-7.1031,-7.0996,-7.1045,-7.113,-7.1153,-7.1176,-7.132,-7.129,-7.1335,-7.1415,-7.1472,-7.1489,-7.1504,-7.1556,-7.1574,-7.1346,-7.1346,-7.1347,0,-7.0808,-7.0896,-7.0883,-7.095,-7.0979,-7.094,-7.1017,-7.1039,-7.1086,-7.1107,-7.1071,-7.1179,-7.1196,-7.1297,-7.1333,-7.1352,-7.1373,-7.1332,-7.1488,-7.1502,-7.1516,-7.1565,-7.1585,-7.1352,-7.1351,-7.1351,-7.135,0,-7.0975,-7.1036,-7.1093,-7.1143,-7.1178,-7.125,-7.1246,-7.1283,-7.1269,-7.1272,-7.1356,-7.1375,-7.1425,-7.1448,-7.1433,-7.1548,-7.1528,-7.1491,-7.1427,-7.1542,-7.1588,-7.1607,-7.136,-7.1358,-7.1356,-7.1355,0,0,-7.1151,-7.1194,-7.1216,-7.1238,-7.1274,-7.1321,-7.139,-7.1441,-7.1474,-7.1507,-7.1565,-7.1639,-7.1606,-7.1632,-7.1619,-7.1669,-7.1782,-7.1625,-7.1626,-7.1654,-7.1911,-7.194,-7.1962,-7.1763,-7.1766,-7.1769,-7.1909,0,-7.1286,-7.141,-7.1401,-7.1517,-7.1573,-7.1538,-7.1598,-7.1626,-7.1632,-7.1679,-7.1684,-7.1738,-7.1689,-7.1704,-7.1752,-7.1759,-7.1834,-7.1748,-7.1815,-7.1818,-7.181,-7.1986,-7.2016,-7.2147,-7.1927,-7.193,-7.1932,0,-7.1459,-7.1502,-7.1625,-7.1655,-7.1678,-7.1733,-7.178,-7.1826,-7.1857,-7.1857,-7.1888,-7.1867,-7.1936,-7.1872,-7.1967,-7.1909,-7.1936,-7.1944,-7.1948,-7.1954,-7.1882,-7.1997,-7.2188,-7.2208,-7.196,-7.1958,-7.1956,0,-7.1577,-7.1665,-7.1751,-7.1771,-7.1807,-7.1847,-7.1863,-7.1891,-7.1922,-7.1962,-7.1983,-7.203,-7.2055,-7.2092,-7.2084,-7.2038,-7.2181,-7.2116,-7.2183,-7.2184,-7.2215,-7.2213,-7.2414,-7.2232,-7.2231,-7.2231,-7.2231,0,-7.1729,-7.1805,-7.1805,-7.1857,-7.1942,-7.193,-7.2014,-7.2025,-7.2051,-7.2104,-7.2074,-7.2124,-7.2111,-7.216,-7.2154,-7.2235,-7.2246,-7.2248,-7.2245,-7.2251,-7.2251,-7.2268,-7.2259,-7.2236,-7.2235,-7.2234,-7.2233,0,-7.1874,-7.1877,-7.1968,-7.1996,-7.2005,-7.2066,-7.2089,-7.2138,-7.2141,-7.2209,-7.2224,-7.223,-7.2286,-7.2282,-7.2345,-7.2341,-7.2441,-7.2427,-7.2431,-7.2429,-7.2497,-7.2491,-7.2716,-7.2745,-7.2543,-7.2545,-7.2547,0,-7.1971,-7.203,-7.2065,-7.21,-7.212,-7.2176,-7.2209,-7.22,-7.2235,-7.2276,-7.2321,-7.2375,-7.2418,-7.2511,-7.2519,-7.2567,-7.2555,-7.2631,-7.2562,-7.2566,-7.2557,-7.2554,-7.256,-7.2644,-7.2646,-7.2648,-7.265,0,-7.2143,-7.2143,-7.2193,-7.2244,-7.2286,-7.2325,-7.2361,-7.239,-7.2385,-7.2426,-7.2485,-7.2519,-7.2585,-7.2639,-7.2686,-7.2701,-7.2675,-7.2672,-7.269,-7.2696,-7.2697,-7.2698,-7.2469,-7.2666,-7.2665,-7.2663,-7.2663,-7.2662,-7.2268,-7.232,-7.2353,-7.241,-7.2437,-7.2472,-7.252,-7.2531,-7.2581,-7.2636,-7.2627,-7.2693,-7.2723,-7.2783,-7.2803,-7.2854,-7.2826,-7.2853,-7.2859,-7.2866,-7.2875,-7.2689,-7.2862,-7.2861,-7.2861,-7.2861,-7.286,0,-7.244,-7.246,-7.2513,-7.2566,-7.2611,-7.2585,-7.2624,-7.2663,-7.2722,-7.2753,-7.2798,-7.2866,-7.2919,-7.2933,-7.2984,-7.3022,-7.3011,-7.3035,-7.3033,-7.3037,-7.2896,-7.2875,-7.3043,-7.3043,-7.3043,-7.3043,-7.3043,-7.3043,-7.2534,-7.262,-7.2624,-7.2722,-7.2741,-7.2808,-7.2833,-7.2865,-7.289,-7.2969,-7.3014,-7.3023,-7.3047,-7.31,-7.3147,-7.3149,-7.317,-7.3199,-7.3197,-7.3065,-7.3046,-7.3029,-7.301,-7.3203,-7.3204,-7.3334,-7.3335,-7.3336]}]]